#datetime,building,power
2022-12-11T00:01:00,pkn,1.20
2022-12-11T00:02:00,pkn,1.20
2022-12-11T00:04:00,pkn,1.20
2022-12-11T00:06:00,pkn,2.40
2022-12-11T00:08:00,pkn,2.40
2022-12-11T00:10:00,pkn,2.40
2022-12-11T00:11:00,pkn,1.20
2022-12-11T00:12:00,pkn,1.20
2022-12-11T00:14:00,pkn,2.40
2022-12-11T00:15:00,pkn,1.20
2022-12-11T00:17:00,pkn,1.20
2022-12-11T00:19:00,pkn,2.40
2022-12-11T00:21:00,pkn,3.60
2022-12-11T00:23:00,pkn,6.00
2022-12-11T00:24:00,pkn,4.80
2022-12-11T00:25:00,pkn,4.80
2022-12-11T00:27:00,pkn,10.80
2022-12-11T00:28:00,pkn,1.20
2022-12-11T00:29:00,pkn,8.40
2022-12-11T00:30:00,pkn,6.00
2022-12-11T00:31:00,pkn,6.00
2022-12-11T00:33:00,pkn,9.60
2022-12-11T00:34:00,pkn,4.80
2022-12-11T00:35:00,pkn,4.80
2022-12-11T00:37:00,pkn,10.80
2022-12-11T00:38:00,pkn,4.80
2022-12-11T00:40:00,pkn,10.80
2022-12-11T00:41:00,pkn,4.80
2022-12-11T00:43:00,pkn,9.60
2022-12-11T00:44:00,pkn,6.00
2022-12-11T00:46:00,pkn,8.40
2022-12-11T00:47:00,pkn,6.00
2022-12-11T00:49:00,pkn,10.80
2022-12-11T00:51:00,pkn,9.60
2022-12-11T00:53:00,pkn,12.00
2022-12-11T00:54:00,pkn,2.40
2022-12-11T00:56:00,pkn,4.80
2022-12-11T00:58:00,pkn,3.60
2022-12-11T01:00:00,pkn,1.20
2022-12-11T01:01:00,pkn,1.20
2022-12-11T01:03:00,pkn,1.20
2022-12-11T01:05:00,pkn,1.20
2022-12-11T01:06:00,pkn,1.20
2022-12-11T01:07:00,pkn,1.20
2022-12-11T01:09:00,pkn,4.80
2022-12-11T01:11:00,pkn,9.60
2022-12-11T01:13:00,pkn,9.60
2022-12-11T01:15:00,pkn,10.80
2022-12-11T01:17:00,pkn,10.80
2022-12-11T01:18:00,pkn,3.60
2022-12-11T01:20:00,pkn,9.60
2022-12-11T01:22:00,pkn,2.40
2022-12-11T01:25:00,pkn,2.40
2022-12-11T01:28:00,pkn,2.40
2022-12-11T01:30:00,pkn,1.20
2022-12-11T01:31:00,pkn,1.20
2022-12-11T01:33:00,pkn,1.20
2022-12-11T01:35:00,pkn,2.40
2022-12-11T01:37:00,pkn,1.20
2022-12-11T01:38:00,pkn,1.20
2022-12-11T01:40:00,pkn,2.40
2022-12-11T01:42:00,pkn,1.20
2022-12-11T01:43:00,pkn,1.20
2022-12-11T01:44:00,pkn,1.20
2022-12-11T01:46:00,pkn,10.80
2022-12-11T01:48:00,pkn,9.60
2022-12-11T01:50:00,pkn,9.60
2022-12-11T01:51:00,pkn,8.40
2022-12-11T01:52:00,pkn,10.80
2022-12-11T01:54:00,pkn,8.40
2022-12-11T01:56:00,pkn,1.20
2022-12-11T01:58:00,pkn,1.20
2022-12-11T02:00:00,pkn,2.40
2022-12-11T02:02:00,pkn,1.20
2022-12-11T02:03:00,pkn,1.20
2022-12-11T02:05:00,pkn,1.20
2022-12-11T02:08:00,pkn,2.40
2022-12-11T02:11:00,pkn,1.20
2022-12-11T02:12:00,pkn,1.20
2022-12-11T02:14:00,pkn,1.20
2022-12-11T02:16:00,pkn,1.20
2022-12-11T02:18:00,pkn,1.20
2022-12-11T02:20:00,pkn,2.40
2022-12-11T02:22:00,pkn,2.40
2022-12-11T02:24:00,pkn,9.60
2022-12-11T02:25:00,pkn,4.80
2022-12-11T02:27:00,pkn,9.60
2022-12-11T02:29:00,pkn,9.60
2022-12-11T02:31:00,pkn,8.40
2022-12-11T02:33:00,pkn,1.20
2022-12-11T02:36:00,pkn,2.40
2022-12-11T02:39:00,pkn,2.40
2022-12-11T02:41:00,pkn,1.20
2022-12-11T02:43:00,pkn,1.20
2022-12-11T02:46:00,pkn,2.40
2022-12-11T02:48:00,pkn,1.20
2022-12-11T02:50:00,pkn,1.20
2022-12-11T02:52:00,pkn,2.40
2022-12-11T02:55:00,pkn,2.40
2022-12-11T02:57:00,pkn,1.20
2022-12-11T02:58:00,pkn,1.20
2022-12-11T03:00:00,pkn,1.20
2022-12-11T03:02:00,pkn,2.40
2022-12-11T03:05:00,pkn,2.40
2022-12-11T03:07:00,pkn,1.20
2022-12-11T03:08:00,pkn,4.80
2022-12-11T03:10:00,pkn,9.60
2022-12-11T03:12:00,pkn,10.80
2022-12-11T03:14:00,pkn,9.60
2022-12-11T03:15:00,pkn,6.00
2022-12-11T03:17:00,pkn,1.20
2022-12-11T03:18:00,pkn,2.40
2022-12-11T03:21:00,pkn,1.20
2022-12-11T03:23:00,pkn,2.40
2022-12-11T03:26:00,pkn,1.20
2022-12-11T03:28:00,pkn,1.20
2022-12-11T03:30:00,pkn,2.40
2022-12-11T03:33:00,pkn,2.40
2022-12-11T03:35:00,pkn,1.20
2022-12-11T03:37:00,pkn,1.20
2022-12-11T03:38:00,pkn,1.20
2022-12-11T03:39:00,pkn,1.20
2022-12-11T03:41:00,pkn,1.20
2022-12-11T03:44:00,pkn,2.40
2022-12-11T03:46:00,pkn,1.20
2022-12-11T03:49:00,pkn,1.20
2022-12-11T03:51:00,pkn,2.40
2022-12-11T03:53:00,pkn,1.20
2022-12-11T03:55:00,pkn,8.40
2022-12-11T03:57:00,pkn,8.40
2022-12-11T03:59:00,pkn,9.60
2022-12-11T04:01:00,pkn,9.60
2022-12-11T04:03:00,pkn,2.40
2022-12-11T04:04:00,pkn,1.20
2022-12-11T04:06:00,pkn,1.20
2022-12-11T04:09:00,pkn,1.20
2022-12-11T04:11:00,pkn,2.40
2022-12-11T04:12:00,pkn,2.40
2022-12-11T04:13:00,pkn,1.20
2022-12-11T04:15:00,pkn,1.20
2022-12-11T04:17:00,pkn,1.20
2022-12-11T04:18:00,pkn,1.20
2022-12-11T04:20:00,pkn,1.20
2022-12-11T04:23:00,pkn,1.20
2022-12-11T04:24:00,pkn,1.20
2022-12-11T04:25:00,pkn,1.20
2022-12-11T04:27:00,pkn,1.20
2022-12-11T04:29:00,pkn,1.20
2022-12-11T04:31:00,pkn,1.20
2022-12-11T04:32:00,pkn,1.20
2022-12-11T04:33:00,pkn,1.20
2022-12-11T04:35:00,pkn,1.20
2022-12-11T04:37:00,pkn,1.20
2022-12-11T04:38:00,pkn,1.20
2022-12-11T04:40:00,pkn,1.20
2022-12-11T04:42:00,pkn,1.20
2022-12-11T04:44:00,pkn,1.20
2022-12-11T04:46:00,pkn,1.20
2022-12-11T04:48:00,pkn,1.20
2022-12-11T04:49:00,pkn,1.20
2022-12-11T04:51:00,pkn,9.60
2022-12-11T04:53:00,pkn,9.60
2022-12-11T04:55:00,pkn,10.80
2022-12-11T04:57:00,pkn,8.40
2022-12-11T04:59:00,pkn,3.60
2022-12-11T05:02:00,pkn,1.20
2022-12-11T05:04:00,pkn,2.40
2022-12-11T05:06:00,pkn,1.20
2022-12-11T05:07:00,pkn,1.20
2022-12-11T05:09:00,pkn,1.20
2022-12-11T05:11:00,pkn,1.20
2022-12-11T05:12:00,pkn,1.20
2022-12-11T05:13:00,pkn,1.20
2022-12-11T05:15:00,pkn,1.20
2022-12-11T05:17:00,pkn,1.20
2022-12-11T05:18:00,pkn,1.20
2022-12-11T05:21:00,pkn,1.20
2022-12-11T05:22:00,pkn,1.20
2022-12-11T05:25:00,pkn,2.40
2022-12-11T05:27:00,pkn,1.20
2022-12-11T05:29:00,pkn,1.20
2022-12-11T05:32:00,pkn,2.40
2022-12-11T05:35:00,pkn,1.20
2022-12-11T05:36:00,pkn,1.20
2022-12-11T05:38:00,pkn,2.40
2022-12-11T05:41:00,pkn,2.40
2022-12-11T05:43:00,pkn,1.20
2022-12-11T05:45:00,pkn,1.20
2022-12-11T05:47:00,pkn,2.40
2022-12-11T05:49:00,pkn,1.20
2022-12-11T05:51:00,pkn,1.20
2022-12-11T05:53:00,pkn,1.20
2022-12-11T05:55:00,pkn,1.20
2022-12-11T05:56:00,pkn,1.20
2022-12-11T05:58:00,pkn,1.20
2022-12-11T05:59:00,pkn,1.20
2022-12-11T06:02:00,pkn,9.60
2022-12-11T06:03:00,pkn,4.80
2022-12-11T06:05:00,pkn,9.60
2022-12-11T06:07:00,pkn,10.80
2022-12-11T06:08:00,pkn,4.80
2022-12-11T06:10:00,pkn,7.20
2022-12-11T06:13:00,pkn,1.20
2022-12-11T06:14:00,pkn,1.20
2022-12-11T06:16:00,pkn,1.20
2022-12-11T06:18:00,pkn,1.20
2022-12-11T06:19:00,pkn,1.20
2022-12-11T06:21:00,pkn,1.20
2022-12-11T06:24:00,pkn,1.20
2022-12-11T06:26:00,pkn,1.20
2022-12-11T06:28:00,pkn,1.20
2022-12-11T06:30:00,pkn,2.40
2022-12-11T06:32:00,pkn,1.20
2022-12-11T06:34:00,pkn,1.20
2022-12-11T06:36:00,pkn,1.20
2022-12-11T06:38:00,pkn,1.20
2022-12-11T06:40:00,pkn,1.20
2022-12-11T06:42:00,pkn,1.20
2022-12-11T06:44:00,pkn,1.20
2022-12-11T06:45:00,pkn,1.20
2022-12-11T06:46:00,pkn,1.20
2022-12-11T06:48:00,pkn,1.20
2022-12-11T06:50:00,pkn,1.20
2022-12-11T06:52:00,pkn,1.20
2022-12-11T06:53:00,pkn,1.20
2022-12-11T06:55:00,pkn,1.20
2022-12-11T06:56:00,pkn,1.20
2022-12-11T06:58:00,pkn,1.20
2022-12-11T06:59:00,pkn,1.20
2022-12-11T07:01:00,pkn,1.20
2022-12-11T07:02:00,pkn,1.20
2022-12-11T07:05:00,pkn,2.40
2022-12-11T07:08:00,pkn,2.40
2022-12-11T07:10:00,pkn,1.20
2022-12-11T07:12:00,pkn,2.40
2022-12-11T07:14:00,pkn,1.20
2022-12-11T07:15:00,pkn,1.20
2022-12-11T07:17:00,pkn,1.20
2022-12-11T07:20:00,pkn,2.40
2022-12-11T07:22:00,pkn,1.20
2022-12-11T07:24:00,pkn,1.20
2022-12-11T07:26:00,pkn,1.20
2022-12-11T07:27:00,pkn,1.20
2022-12-11T07:29:00,pkn,1.20
2022-12-11T07:31:00,pkn,1.20
2022-12-11T07:33:00,pkn,1.20
2022-12-11T07:35:00,pkn,1.20
2022-12-11T07:37:00,pkn,2.40
2022-12-11T07:40:00,pkn,1.20
2022-12-11T07:42:00,pkn,1.20
2022-12-11T07:44:00,pkn,2.40
2022-12-11T07:47:00,pkn,8.40
2022-12-11T07:49:00,pkn,10.80
2022-12-11T07:51:00,pkn,9.60
2022-12-11T07:52:00,pkn,3.60
2022-12-11T07:53:00,pkn,4.80
2022-12-11T07:54:00,pkn,1.20
2022-12-11T07:55:00,pkn,2.40
2022-12-11T07:56:00,pkn,1.20
2022-12-11T07:58:00,pkn,1.20
2022-12-11T07:59:00,pkn,1.20
2022-12-11T08:02:00,pkn,1.20
2022-12-11T08:03:00,pkn,1.20
2022-12-11T08:05:00,pkn,1.20
2022-12-11T08:08:00,pkn,2.40
2022-12-11T08:10:00,pkn,1.20
2022-12-11T08:12:00,pkn,1.20
2022-12-11T08:14:00,pkn,1.20
2022-12-11T08:16:00,pkn,1.20
2022-12-11T08:19:00,pkn,1.20
2022-12-11T08:20:00,pkn,1.20
2022-12-11T08:21:00,pkn,1.20
2022-12-11T08:23:00,pkn,1.20
2022-12-11T08:25:00,pkn,1.20
2022-12-11T08:27:00,pkn,1.20
2022-12-11T08:29:00,pkn,1.20
2022-12-11T08:31:00,pkn,1.20
2022-12-11T08:33:00,pkn,1.20
2022-12-11T08:34:00,pkn,1.20
2022-12-11T08:36:00,pkn,1.20
2022-12-11T08:37:00,pkn,1.20
2022-12-11T08:39:00,pkn,1.20
2022-12-11T08:41:00,pkn,1.20
2022-12-11T08:42:00,pkn,1.20
2022-12-11T08:44:00,pkn,1.20
2022-12-11T08:46:00,pkn,1.20
2022-12-11T08:48:00,pkn,1.20
2022-12-11T08:49:00,pkn,1.20
2022-12-11T08:51:00,pkn,1.20
2022-12-11T08:53:00,pkn,2.40
2022-12-11T08:56:00,pkn,2.40
2022-12-11T08:58:00,pkn,1.20
2022-12-11T09:00:00,pkn,1.20
2022-12-11T09:02:00,pkn,2.40
2022-12-11T09:04:00,pkn,2.40
2022-12-11T09:05:00,pkn,3.60
2022-12-11T09:07:00,pkn,10.80
2022-12-11T09:08:00,pkn,4.80
2022-12-11T09:10:00,pkn,8.40
2022-12-11T09:11:00,pkn,6.00
2022-12-11T09:13:00,pkn,8.40
2022-12-11T09:14:00,pkn,6.00
2022-12-11T09:16:00,pkn,8.40
2022-12-11T09:17:00,pkn,6.00
2022-12-11T09:19:00,pkn,8.40
2022-12-11T09:20:00,pkn,6.00
2022-12-11T09:22:00,pkn,9.60
2022-12-11T09:24:00,pkn,8.40
2022-12-11T09:26:00,pkn,9.60
2022-12-11T09:28:00,pkn,9.60
2022-12-11T09:30:00,pkn,1.20
2022-12-11T09:32:00,pkn,2.40
2022-12-11T09:35:00,pkn,2.40
2022-12-11T09:36:00,pkn,2.40
2022-12-11T09:38:00,pkn,9.60
2022-12-11T09:39:00,pkn,4.80
2022-12-11T09:40:00,pkn,7.20
2022-12-11T09:42:00,pkn,12.00
2022-12-11T09:44:00,pkn,13.20
2022-12-11T09:45:00,pkn,6.00
2022-12-11T09:46:00,pkn,7.20
2022-12-11T09:48:00,pkn,9.60
2022-12-11T09:49:00,pkn,4.80
2022-12-11T09:51:00,pkn,9.60
2022-12-11T09:53:00,pkn,10.80
2022-12-11T09:55:00,pkn,9.60
2022-12-11T09:57:00,pkn,8.40
2022-12-11T09:58:00,pkn,6.00
2022-12-11T10:00:00,pkn,9.60
2022-12-11T10:01:00,pkn,4.80
2022-12-11T10:03:00,pkn,6.00
2022-12-11T10:05:00,pkn,1.20
2022-12-11T10:06:00,pkn,1.20
2022-12-11T10:08:00,pkn,1.20
2022-12-11T10:10:00,pkn,2.40
2022-12-11T10:11:00,pkn,1.20
2022-12-11T10:14:00,pkn,2.40
2022-12-11T10:17:00,pkn,6.00
2022-12-11T10:18:00,pkn,4.80
2022-12-11T10:19:00,pkn,4.80
2022-12-11T10:20:00,pkn,4.80
2022-12-11T10:22:00,pkn,9.60
2022-12-11T10:24:00,pkn,9.60
2022-12-11T10:25:00,pkn,4.80
2022-12-11T10:27:00,pkn,9.60
2022-12-11T10:28:00,pkn,4.80
2022-12-11T10:30:00,pkn,8.40
2022-12-11T10:31:00,pkn,1.20
2022-12-11T10:32:00,pkn,1.20
2022-12-11T10:33:00,pkn,1.20
2022-12-11T10:35:00,pkn,1.20
2022-12-11T10:36:00,pkn,1.20
2022-12-11T10:37:00,pkn,1.20
2022-12-11T10:39:00,pkn,1.20
2022-12-11T10:40:00,pkn,1.20
2022-12-11T10:41:00,pkn,1.20
2022-12-11T10:42:00,pkn,1.20
2022-12-11T10:44:00,pkn,1.20
2022-12-11T10:45:00,pkn,1.20
2022-12-11T10:47:00,pkn,2.40
2022-12-11T10:49:00,pkn,8.40
2022-12-11T10:51:00,pkn,10.80
2022-12-11T10:53:00,pkn,9.60
2022-12-11T10:55:00,pkn,9.60
2022-12-11T10:57:00,pkn,9.60
2022-12-11T10:58:00,pkn,6.00
2022-12-11T10:59:00,pkn,2.40
2022-12-11T11:01:00,pkn,1.20
2022-12-11T11:02:00,pkn,1.20
2022-12-11T11:04:00,pkn,1.20
2022-12-11T11:06:00,pkn,2.40
2022-12-11T11:07:00,pkn,1.20
2022-12-11T11:09:00,pkn,1.20
2022-12-11T11:11:00,pkn,1.20
2022-12-11T11:12:00,pkn,1.20
2022-12-11T11:13:00,pkn,1.20
2022-12-11T11:15:00,pkn,1.20
2022-12-11T11:16:00,pkn,1.20
2022-12-11T11:18:00,pkn,2.40
2022-12-11T11:20:00,pkn,1.20
2022-12-11T11:22:00,pkn,4.80
2022-12-11T11:24:00,pkn,10.80
2022-12-11T11:25:00,pkn,4.80
2022-12-11T11:26:00,pkn,4.80
2022-12-11T11:28:00,pkn,10.80
2022-12-11T11:30:00,pkn,8.40
2022-12-11T11:32:00,pkn,7.20
2022-12-11T11:34:00,pkn,1.20
2022-12-11T11:35:00,pkn,1.20
2022-12-11T11:37:00,pkn,1.20
2022-12-11T11:39:00,pkn,3.60
2022-12-11T11:40:00,pkn,2.40
2022-12-11T11:42:00,pkn,3.60
2022-12-11T11:43:00,pkn,1.20
2022-12-11T11:44:00,pkn,2.40
2022-12-11T11:46:00,pkn,2.40
2022-12-11T11:48:00,pkn,3.60
2022-12-11T11:50:00,pkn,2.40
2022-12-11T11:52:00,pkn,2.40
2022-12-11T11:53:00,pkn,1.20
2022-12-11T11:55:00,pkn,1.20
2022-12-11T11:57:00,pkn,1.20
2022-12-11T11:58:00,pkn,1.20
2022-12-11T12:01:00,pkn,6.00
2022-12-11T12:03:00,pkn,9.60
2022-12-11T12:04:00,pkn,4.80
2022-12-11T12:05:00,pkn,6.00
2022-12-11T12:07:00,pkn,9.60
2022-12-11T12:08:00,pkn,4.80
2022-12-11T12:10:00,pkn,8.40
2022-12-11T12:12:00,pkn,2.40
2022-12-11T12:14:00,pkn,1.20
2022-12-11T12:15:00,pkn,1.20
2022-12-11T12:17:00,pkn,1.20
2022-12-11T12:18:00,pkn,1.20
2022-12-11T12:20:00,pkn,2.40
2022-12-11T12:22:00,pkn,1.20
2022-12-11T12:23:00,pkn,1.20
2022-12-11T12:25:00,pkn,1.20
2022-12-11T12:28:00,pkn,1.20
2022-12-11T12:29:00,pkn,1.20
2022-12-11T12:30:00,pkn,1.20
2022-12-11T12:32:00,pkn,1.20
2022-12-11T12:34:00,pkn,2.40
2022-12-11T12:37:00,pkn,2.40
2022-12-11T12:38:00,pkn,2.40
2022-12-11T12:40:00,pkn,8.40
2022-12-11T12:41:00,pkn,4.80
2022-12-11T12:43:00,pkn,9.60
2022-12-11T12:45:00,pkn,9.60
2022-12-11T12:46:00,pkn,6.00
2022-12-11T12:48:00,pkn,6.00
2022-12-11T12:50:00,pkn,1.20
2022-12-11T12:52:00,pkn,2.40
2022-12-11T12:54:00,pkn,1.20
2022-12-11T12:56:00,pkn,1.20
2022-12-11T12:58:00,pkn,2.40
2022-12-11T13:00:00,pkn,1.20
2022-12-11T13:02:00,pkn,2.40
2022-12-11T13:04:00,pkn,1.20
2022-12-11T13:06:00,pkn,2.40
2022-12-11T13:09:00,pkn,2.40
2022-12-11T13:11:00,pkn,1.20
2022-12-11T13:13:00,pkn,1.20
2022-12-11T13:14:00,pkn,1.20
2022-12-11T13:16:00,pkn,1.20
2022-12-11T13:18:00,pkn,2.40
2022-12-11T13:21:00,pkn,1.20
2022-12-11T13:23:00,pkn,6.00
2022-12-11T13:24:00,pkn,4.80
2022-12-11T13:26:00,pkn,9.60
2022-12-11T13:28:00,pkn,8.40
2022-12-11T13:29:00,pkn,6.00
2022-12-11T13:30:00,pkn,4.80
2022-12-11T13:32:00,pkn,3.60
2022-12-11T13:33:00,pkn,1.20
2022-12-11T13:35:00,pkn,1.20
2022-12-11T13:37:00,pkn,2.40
2022-12-11T13:38:00,pkn,1.20
2022-12-11T13:40:00,pkn,1.20
2022-12-11T13:41:00,pkn,1.20
2022-12-11T13:43:00,pkn,1.20
2022-12-11T13:44:00,pkn,1.20
2022-12-11T13:46:00,pkn,1.20
2022-12-11T13:47:00,pkn,1.20
2022-12-11T13:49:00,pkn,2.40
2022-12-11T13:51:00,pkn,1.20
2022-12-11T13:53:00,pkn,2.40
2022-12-11T13:55:00,pkn,1.20
2022-12-11T13:56:00,pkn,1.20
2022-12-11T13:58:00,pkn,2.40
2022-12-11T14:00:00,pkn,1.20
2022-12-11T14:01:00,pkn,1.20
2022-12-11T14:04:00,pkn,2.40
2022-12-11T14:06:00,pkn,1.20
2022-12-11T14:07:00,pkn,1.20
2022-12-11T14:09:00,pkn,1.20
2022-12-11T14:10:00,pkn,1.20
2022-12-11T14:12:00,pkn,1.20
2022-12-11T14:14:00,pkn,3.60
2022-12-11T14:16:00,pkn,10.80
2022-12-11T14:17:00,pkn,4.80
2022-12-11T14:19:00,pkn,9.60
2022-12-11T14:20:00,pkn,4.80
2022-12-11T14:21:00,pkn,3.60
2022-12-11T14:23:00,pkn,3.60
2022-12-11T14:25:00,pkn,1.20
2022-12-11T14:26:00,pkn,1.20
2022-12-11T14:29:00,pkn,2.40
2022-12-11T14:31:00,pkn,1.20
2022-12-11T14:32:00,pkn,1.20
2022-12-11T14:34:00,pkn,1.20
2022-12-11T14:36:00,pkn,1.20
2022-12-11T14:37:00,pkn,1.20
2022-12-11T14:39:00,pkn,1.20
2022-12-11T14:41:00,pkn,2.40
2022-12-11T14:43:00,pkn,1.20
2022-12-11T14:45:00,pkn,1.20
2022-12-11T14:46:00,pkn,1.20
2022-12-11T14:48:00,pkn,1.20
2022-12-11T14:49:00,pkn,1.20
2022-12-11T14:51:00,pkn,1.20
2022-12-11T14:52:00,pkn,1.20
2022-12-11T14:54:00,pkn,1.20
2022-12-11T14:56:00,pkn,1.20
2022-12-11T14:57:00,pkn,1.20
2022-12-11T14:58:00,pkn,1.20
2022-12-11T15:00:00,pkn,1.20
2022-12-11T15:02:00,pkn,2.40
2022-12-11T15:04:00,pkn,1.20
2022-12-11T15:05:00,pkn,1.20
2022-12-11T15:07:00,pkn,2.40
2022-12-11T15:10:00,pkn,2.40
2022-12-11T15:11:00,pkn,1.20
2022-12-11T15:13:00,pkn,1.20
2022-12-11T15:16:00,pkn,2.40
2022-12-11T15:18:00,pkn,8.40
2022-12-11T15:19:00,pkn,3.60
2022-12-11T15:20:00,pkn,4.80
2022-12-11T15:22:00,pkn,9.60
2022-12-11T15:24:00,pkn,10.80
2022-12-11T15:26:00,pkn,3.60
2022-12-11T15:28:00,pkn,1.20
2022-12-11T15:30:00,pkn,2.40
2022-12-11T15:32:00,pkn,2.40
2022-12-11T15:34:00,pkn,1.20
2022-12-11T15:35:00,pkn,1.20
2022-12-11T15:37:00,pkn,1.20
2022-12-11T15:39:00,pkn,2.40
2022-12-11T15:41:00,pkn,1.20
2022-12-11T15:44:00,pkn,2.40
2022-12-11T15:46:00,pkn,1.20
2022-12-11T15:49:00,pkn,1.20
2022-12-11T15:51:00,pkn,1.20
2022-12-11T15:52:00,pkn,1.20
2022-12-11T15:54:00,pkn,1.20
2022-12-11T15:57:00,pkn,2.40
2022-12-11T15:59:00,pkn,1.20
2022-12-11T16:01:00,pkn,1.20
2022-12-11T16:04:00,pkn,1.20
2022-12-11T16:06:00,pkn,1.20
2022-12-11T16:08:00,pkn,1.20
2022-12-11T16:10:00,pkn,1.20
2022-12-11T16:12:00,pkn,1.20
2022-12-11T16:14:00,pkn,1.20
2022-12-11T16:16:00,pkn,1.20
2022-12-11T16:19:00,pkn,2.40
2022-12-11T16:21:00,pkn,1.20
2022-12-11T16:23:00,pkn,1.20
2022-12-11T16:25:00,pkn,1.20
2022-12-11T16:26:00,pkn,1.20
2022-12-11T16:28:00,pkn,8.40
2022-12-11T16:29:00,pkn,3.60
2022-12-11T16:31:00,pkn,9.60
2022-12-11T16:33:00,pkn,8.40
2022-12-11T16:34:00,pkn,6.00
2022-12-11T16:36:00,pkn,8.40
2022-12-11T16:38:00,pkn,6.00
2022-12-11T16:39:00,pkn,1.20
2022-12-11T16:41:00,pkn,1.20
2022-12-11T16:44:00,pkn,2.40
2022-12-11T16:46:00,pkn,1.20
2022-12-11T16:49:00,pkn,1.20
2022-12-11T16:51:00,pkn,2.40
2022-12-11T16:53:00,pkn,1.20
2022-12-11T16:55:00,pkn,1.20
2022-12-11T16:57:00,pkn,1.20
2022-12-11T16:58:00,pkn,1.20
2022-12-11T17:01:00,pkn,1.20
2022-12-11T17:03:00,pkn,1.20
2022-12-11T17:05:00,pkn,2.40
2022-12-11T17:07:00,pkn,1.20
2022-12-11T17:09:00,pkn,1.20
2022-12-11T17:11:00,pkn,2.40
2022-12-11T17:12:00,pkn,1.20
2022-12-11T17:13:00,pkn,1.20
2022-12-11T17:15:00,pkn,1.20
2022-12-11T17:16:00,pkn,2.40
2022-12-11T17:18:00,pkn,10.80
2022-12-11T17:20:00,pkn,8.40
2022-12-11T17:21:00,pkn,6.00
2022-12-11T17:23:00,pkn,8.40
2022-12-11T17:24:00,pkn,6.00
2022-12-11T17:26:00,pkn,1.20
2022-12-11T17:27:00,pkn,1.20
2022-12-11T17:29:00,pkn,2.40
2022-12-11T17:31:00,pkn,1.20
2022-12-11T17:33:00,pkn,2.40
2022-12-11T17:35:00,pkn,1.20
2022-12-11T17:37:00,pkn,2.40
2022-12-11T17:39:00,pkn,1.20
2022-12-11T17:40:00,pkn,1.20
2022-12-11T17:42:00,pkn,1.20
2022-12-11T17:44:00,pkn,2.40
2022-12-11T17:46:00,pkn,1.20
2022-12-11T17:47:00,pkn,1.20
2022-12-11T17:48:00,pkn,1.20
2022-12-11T17:50:00,pkn,1.20
2022-12-11T17:51:00,pkn,1.20
2022-12-11T17:53:00,pkn,1.20
2022-12-11T17:54:00,pkn,1.20
2022-12-11T17:55:00,pkn,1.20
2022-12-11T17:57:00,pkn,1.20
2022-12-11T17:58:00,pkn,1.20
2022-12-11T17:59:00,pkn,1.20
2022-12-11T18:00:00,pkn,1.20
2022-12-11T18:02:00,pkn,1.20
2022-12-11T18:03:00,pkn,1.20
2022-12-11T18:05:00,pkn,1.20
2022-12-11T18:06:00,pkn,1.20
2022-12-11T18:08:00,pkn,1.20
2022-12-11T18:10:00,pkn,2.40
2022-12-11T18:11:00,pkn,1.20
2022-12-11T18:13:00,pkn,1.20
2022-12-11T18:14:00,pkn,1.20
2022-12-11T18:17:00,pkn,2.40
2022-12-11T18:18:00,pkn,1.20
2022-12-11T18:20:00,pkn,10.80
2022-12-11T18:22:00,pkn,8.40
2022-12-11T18:23:00,pkn,6.00
2022-12-11T18:24:00,pkn,4.80
2022-12-11T18:26:00,pkn,6.00
2022-12-11T18:27:00,pkn,1.20
2022-12-11T18:29:00,pkn,1.20
2022-12-11T18:31:00,pkn,1.20
2022-12-11T18:33:00,pkn,2.40
2022-12-11T18:36:00,pkn,2.40
2022-12-11T18:39:00,pkn,2.40
2022-12-11T18:42:00,pkn,2.40
2022-12-11T18:44:00,pkn,2.40
2022-12-11T18:47:00,pkn,2.40
2022-12-11T18:48:00,pkn,1.20
2022-12-11T18:50:00,pkn,2.40
2022-12-11T18:52:00,pkn,1.20
2022-12-11T18:54:00,pkn,2.40
2022-12-11T18:56:00,pkn,2.40
2022-12-11T18:59:00,pkn,2.40
2022-12-11T19:01:00,pkn,1.20
2022-12-11T19:02:00,pkn,1.20
2022-12-11T19:03:00,pkn,1.20
2022-12-11T19:05:00,pkn,1.20
2022-12-11T19:06:00,pkn,1.20
2022-12-11T19:08:00,pkn,3.60
2022-12-11T19:10:00,pkn,8.40
2022-12-11T19:11:00,pkn,6.00
2022-12-11T19:13:00,pkn,9.60
2022-12-11T19:14:00,pkn,4.80
2022-12-11T19:16:00,pkn,9.60
2022-12-11T19:17:00,pkn,6.00
2022-12-11T19:19:00,pkn,8.40
2022-12-11T19:20:00,pkn,6.00
2022-12-11T19:22:00,pkn,1.20
2022-12-11T19:24:00,pkn,1.20
2022-12-11T19:26:00,pkn,2.40
2022-12-11T19:28:00,pkn,1.20
2022-12-11T19:30:00,pkn,2.40
2022-12-11T19:32:00,pkn,2.40
2022-12-11T19:34:00,pkn,1.20
2022-12-11T19:36:00,pkn,2.40
2022-12-11T19:37:00,pkn,1.20
2022-12-11T19:39:00,pkn,1.20
2022-12-11T19:41:00,pkn,2.40
2022-12-11T19:42:00,pkn,1.20
2022-12-11T19:44:00,pkn,1.20
2022-12-11T19:46:00,pkn,1.20
2022-12-11T19:48:00,pkn,2.40
2022-12-11T19:50:00,pkn,1.20
2022-12-11T19:51:00,pkn,1.20
2022-12-11T19:52:00,pkn,1.20
2022-12-11T19:54:00,pkn,1.20
2022-12-11T19:55:00,pkn,1.20
2022-12-11T19:57:00,pkn,7.20
2022-12-11T19:59:00,pkn,9.60
2022-12-11T20:00:00,pkn,6.00
2022-12-11T20:02:00,pkn,8.40
2022-12-11T20:03:00,pkn,6.00
2022-12-11T20:04:00,pkn,1.20
2022-12-11T20:05:00,pkn,4.80
2022-12-11T20:07:00,pkn,2.40
2022-12-11T20:10:00,pkn,2.40
2022-12-11T20:11:00,pkn,1.20
2022-12-11T20:13:00,pkn,1.20
2022-12-11T20:15:00,pkn,1.20
2022-12-11T20:16:00,pkn,1.20
2022-12-11T20:18:00,pkn,2.40
2022-12-11T20:19:00,pkn,1.20
2022-12-11T20:21:00,pkn,1.20
2022-12-11T20:23:00,pkn,2.40
2022-12-11T20:24:00,pkn,1.20
2022-12-11T20:25:00,pkn,1.20
2022-12-11T20:27:00,pkn,1.20
2022-12-11T20:28:00,pkn,3.60
2022-12-11T20:29:00,pkn,2.40
2022-12-11T20:31:00,pkn,4.80
2022-12-11T20:33:00,pkn,4.80
2022-12-11T20:35:00,pkn,3.60
2022-12-11T20:37:00,pkn,2.40
2022-12-11T20:39:00,pkn,1.20
2022-12-11T20:41:00,pkn,2.40
2022-12-11T20:42:00,pkn,1.20
2022-12-11T20:44:00,pkn,2.40
2022-12-11T20:46:00,pkn,1.20
2022-12-11T20:47:00,pkn,3.60
2022-12-11T20:49:00,pkn,10.80
2022-12-11T20:50:00,pkn,6.00
2022-12-11T20:52:00,pkn,8.40
2022-12-11T20:54:00,pkn,13.20
2022-12-11T20:56:00,pkn,10.80
2022-12-11T20:57:00,pkn,4.80
2022-12-11T20:59:00,pkn,10.80
2022-12-11T21:01:00,pkn,10.80
2022-12-11T21:02:00,pkn,4.80
2022-12-11T21:03:00,pkn,4.80
2022-12-11T21:05:00,pkn,10.80
2022-12-11T21:06:00,pkn,4.80
2022-12-11T21:08:00,pkn,10.80
2022-12-11T21:10:00,pkn,10.80
2022-12-11T21:12:00,pkn,2.40
2022-12-11T21:14:00,pkn,2.40
2022-12-11T21:16:00,pkn,2.40
2022-12-11T21:17:00,pkn,1.20
2022-12-11T21:19:00,pkn,1.20
2022-12-11T21:20:00,pkn,1.20
2022-12-11T21:22:00,pkn,2.40
2022-12-11T21:24:00,pkn,2.40
2022-12-11T21:26:00,pkn,4.80
2022-12-11T21:27:00,pkn,3.60
2022-12-11T21:29:00,pkn,10.80
2022-12-11T21:30:00,pkn,4.80
2022-12-11T21:32:00,pkn,10.80
2022-12-11T21:34:00,pkn,9.60
2022-12-11T21:35:00,pkn,4.80
2022-12-11T21:37:00,pkn,10.80
2022-12-11T21:38:00,pkn,1.20
2022-12-11T21:40:00,pkn,2.40
2022-12-11T21:41:00,pkn,1.20
2022-12-11T21:43:00,pkn,2.40
2022-12-11T21:46:00,pkn,2.40
2022-12-11T21:47:00,pkn,1.20
2022-12-11T21:49:00,pkn,2.40
2022-12-11T21:51:00,pkn,2.40
2022-12-11T21:52:00,pkn,1.20
2022-12-11T21:54:00,pkn,1.20
2022-12-11T21:55:00,pkn,1.20
2022-12-11T21:57:00,pkn,2.40
2022-12-11T21:59:00,pkn,2.40
2022-12-11T22:00:00,pkn,2.40
2022-12-11T22:02:00,pkn,9.60
2022-12-11T22:04:00,pkn,10.80
2022-12-11T22:05:00,pkn,4.80
2022-12-11T22:07:00,pkn,10.80
2022-12-11T22:09:00,pkn,10.80
2022-12-11T22:11:00,pkn,1.20
2022-12-11T22:13:00,pkn,2.40
2022-12-11T22:15:00,pkn,2.40
2022-12-11T22:18:00,pkn,2.40
2022-12-11T22:19:00,pkn,1.20
2022-12-11T22:21:00,pkn,2.40
2022-12-11T22:23:00,pkn,1.20
2022-12-11T22:24:00,pkn,1.20
2022-12-11T22:26:00,pkn,2.40
2022-12-11T22:28:00,pkn,2.40
2022-12-11T22:29:00,pkn,1.20
2022-12-11T22:31:00,pkn,2.40
2022-12-11T22:33:00,pkn,2.40
2022-12-11T22:35:00,pkn,2.40
2022-12-11T22:36:00,pkn,1.20
2022-12-11T22:38:00,pkn,2.40
2022-12-11T22:40:00,pkn,1.20
2022-12-11T22:42:00,pkn,7.20
2022-12-11T22:44:00,pkn,8.40
2022-12-11T22:46:00,pkn,9.60
2022-12-11T22:48:00,pkn,10.80
2022-12-11T22:49:00,pkn,3.60
2022-12-11T22:51:00,pkn,6.00
2022-12-11T22:53:00,pkn,1.20
2022-12-11T22:54:00,pkn,1.20
2022-12-11T22:55:00,pkn,1.20
2022-12-11T22:57:00,pkn,1.20
2022-12-11T22:59:00,pkn,1.20
2022-12-11T23:00:00,pkn,1.20
2022-12-11T23:03:00,pkn,2.40
2022-12-11T23:05:00,pkn,1.20
2022-12-11T23:06:00,pkn,1.20
2022-12-11T23:09:00,pkn,1.20
2022-12-11T23:11:00,pkn,2.40
2022-12-11T23:13:00,pkn,1.20
2022-12-11T23:15:00,pkn,1.20
2022-12-11T23:17:00,pkn,1.20
2022-12-11T23:19:00,pkn,2.40
2022-12-11T23:22:00,pkn,1.20
2022-12-11T23:23:00,pkn,1.20
2022-12-11T23:26:00,pkn,2.40
2022-12-11T23:28:00,pkn,1.20
2022-12-11T23:30:00,pkn,1.20
2022-12-11T23:32:00,pkn,1.20
2022-12-11T23:34:00,pkn,8.40
2022-12-11T23:36:00,pkn,8.40
2022-12-11T23:38:00,pkn,9.60
2022-12-11T23:40:00,pkn,9.60
2022-12-11T23:41:00,pkn,2.40
2022-12-11T23:43:00,pkn,1.20
2022-12-11T23:45:00,pkn,1.20
2022-12-11T23:47:00,pkn,1.20
2022-12-11T23:49:00,pkn,2.40
2022-12-11T23:51:00,pkn,1.20
2022-12-11T23:53:00,pkn,1.20
2022-12-11T23:55:00,pkn,1.20
2022-12-11T23:57:00,pkn,9.60
2022-12-11T23:58:00,pkn,1.20
2022-12-11T23:59:00,pkn,7.20
